This is the latest recevied weather packets stored in our database for station/object JF2ZGN-13. If no packets are shown the sender has not sent any weather packets the latest 10 day(s).
| Time | Temp. | Humidity | Pressure | Rain* | Wind** | Luminosity | Snow |
|---|---|---|---|---|---|---|---|
| 1787826530 | 20.56° C | 87% | 908.8 hPa | 0 mm | - | - | - |
| 1787825930 | 20.56° C | 86% | 909 hPa | 0 mm | - | - | - |
| 1787825329 | 20.56° C | 85% | 908.8 hPa | 0 mm | - | - | - |
| 1787824729 | 20.56° C | 85% | 908.7 hPa | 0 mm | - | - | - |
| 1787824128 | 20.56° C | 85% | 908.7 hPa | 0 mm | - | - | - |
| 1787823528 | 20° C | 87% | 908.9 hPa | 0 mm | - | - | - |
| 1787822928 | 20.56° C | 87% | 908.8 hPa | 0 mm | - | - | - |
| 1787822327 | 20.56° C | 86% | 908.5 hPa | 0 mm | - | - | - |
| 1787821728 | 20.56° C | 84% | 908.2 hPa | 0 mm | - | - | - |
| 1787821126 | 20.56° C | 84% | 908.5 hPa | 0 mm | - | - | - |
| 1787820526 | 20.56° C | 83% | 908.7 hPa | 0 mm | - | - | - |
| 1787819926 | 21.11° C | 82% | 908.4 hPa | 0 mm | - | - | - |
| 1787819325 | 21.11° C | 81% | 908.8 hPa | 0 mm | - | - | - |
| 1787818724 | 21.67° C | 80% | 908.8 hPa | 0 mm | - | - | - |
| 1787818124 | 21.67° C | 78% | 909 hPa | 0 mm | - | - | - |
| 1787817523 | 22.22° C | 77% | 908.9 hPa | 0 mm | - | - | - |
| 1787816923 | 22.22° C | 73% | 909.1 hPa | 0 mm | - | - | - |
| 1787816323 | 22.22° C | 75% | 909 hPa | 0 mm | - | - | - |
| 1787815722 | 22.22° C | 73% | 909 hPa | 0 mm | - | - | - |
| 1787815121 | 22.22° C | 70% | 908.9 hPa | 0 mm | - | - | - |
| 1787814521 | 22.22° C | 72% | 908.9 hPa | 0 mm | - | - | - |
| 1787813920 | 22.22° C | 66% | 908.8 hPa | 0 mm | - | - | - |
| 1787813320 | 22.78° C | 62% | 908.6 hPa | 0 mm | - | - | - |
| 1787812720 | 22.78° C | 61% | 908.5 hPa | 0 mm | - | - | - |
| 1787812119 | 22.78° C | 59% | 908.3 hPa | 0 mm | - | - | - |
* Rain since midnight (hover to see other rain measurements)
** Current wind speed in m/s (hover to see current wind gust speed)